UZB78 UZST-UZTT

Flight info

Callsign UZB78
Flight time N/A
Altitude 37000
Route FIZLE2A FIZLE Y300 ARPIZ/K0824F390 Y300 USETU/K0820F380 M741 RONVU/K0813F390 Q325 TITAR Y92 NETAT M168 KUFIM KUFIM2W
Aircraft A20N/M-SDE2E3FGHIRWXY/LB1

Departure

Time N/A
Airport UZST

Arrival

Time 2026-04-20 16:11
Airport Tashkent International Airport (UZTT)
Time Latitude Longitude Altitude Speed Heading
2026-04-20 15:43 39.69181 67.26864 23860 ft 502 kts
2026-04-20 15:43 39.72599 67.27599 23856 ft 506 kts 13°
2026-04-20 15:44 39.75836 67.29272 23862 ft 511 kts 26°
2026-04-20 15:44 39.78756 67.31901 23868 ft 514 kts 39°
2026-04-20 15:44 39.81323 67.35098 23881 ft 515 kts 44°
2026-04-20 15:44 39.83792 67.38396 23888 ft 515 kts 44°
2026-04-20 15:45 39.86273 67.41751 23900 ft 515 kts 44°
2026-04-20 15:45 39.88764 67.45099 23915 ft 514 kts 44°
2026-04-20 15:45 39.91225 67.48375 23930 ft 514 kts 44°
2026-04-20 15:45 39.93651 67.51584 23943 ft 514 kts 44°
2026-04-20 15:46 39.96060 67.54757 23953 ft 514 kts 44°
2026-04-20 15:46 39.98474 67.57934 23962 ft 514 kts 44°
2026-04-20 15:46 40.00980 67.61232 23968 ft 514 kts 44°
2026-04-20 15:46 40.03499 67.64552 23974 ft 514 kts 44°
2026-04-20 15:47 40.05994 67.67852 23978 ft 514 kts 44°
2026-04-20 15:47 40.08486 67.71161 23981 ft 514 kts 44°
2026-04-20 15:47 40.10935 67.74409 23983 ft 514 kts 44°
2026-04-20 15:47 40.13414 67.77673 23983 ft 514 kts 44°
2026-04-20 15:48 40.15947 67.80962 23983 ft 514 kts 43°
2026-04-20 15:48 40.18485 67.84235 23981 ft 514 kts 43°
2026-04-20 15:48 40.20986 67.87466 23967 ft 508 kts 43°
2026-04-20 15:48 40.23445 67.90657 23534 ft 487 kts 43°
2026-04-20 15:49 40.25788 67.93707 22760 ft 461 kts 44°
2026-04-20 15:49 40.27960 67.96544 22372 ft 432 kts 44°
2026-04-20 15:49 40.30011 67.99224 21891 ft 416 kts 43°
2026-04-20 15:49 40.32022 68.01848 21371 ft 411 kts 43°
2026-04-20 15:50 40.34032 68.04466 20846 ft 407 kts 43°
2026-04-20 15:50 40.36019 68.07040 20324 ft 404 kts 43°
2026-04-20 15:50 40.38003 68.09611 19799 ft 400 kts 43°
2026-04-20 15:50 40.39963 68.12156 19275 ft 397 kts 43°
2026-04-20 15:51 40.41911 68.14689 18749 ft 393 kts 43°
2026-04-20 15:51 40.43808 68.17161 18232 ft 390 kts 44°
2026-04-20 15:51 40.45703 68.19634 17711 ft 387 kts 44°
2026-04-20 15:51 40.47555 68.22053 17198 ft 383 kts 44°
2026-04-20 15:52 40.49432 68.24506 16673 ft 380 kts 44°
2026-04-20 15:52 40.51152 68.26756 16187 ft 377 kts 44°
2026-04-20 15:52 40.52000 68.27866 15946 ft 376 kts 44°
2026-04-20 15:53 40.55319 68.32217 14993 ft 370 kts 44°
2026-04-20 15:53 40.57938 68.35655 14230 ft 365 kts 44°
2026-04-20 15:53 40.59831 68.38142 13653 ft 362 kts 44°
2026-04-20 15:53 40.61592 68.40456 13070 ft 350 kts 44°
2026-04-20 15:54 40.63238 68.42690 12494 ft 335 kts 45°
2026-04-20 15:54 40.64785 68.44836 11925 ft 322 kts 46°
2026-04-20 15:54 40.66306 68.46956 11342 ft 311 kts 45°
2026-04-20 15:54 40.67748 68.48966 10773 ft 302 kts 45°
2026-04-20 15:55 40.69150 68.50916 10204 ft 294 kts 45°
2026-04-20 15:55 40.70519 68.52817 9635 ft 287 kts 44°
2026-04-20 15:55 40.71869 68.54688 9061 ft 280 kts 44°
2026-04-20 15:55 40.73197 68.56530 8484 ft 274 kts 44°
2026-04-20 15:56 40.74461 68.58315 8109 ft 262 kts 46°
2026-04-20 15:56 40.75658 68.60101 8030 ft 262 kts 46°
2026-04-20 15:56 40.76875 68.61932 7962 ft 262 kts 46°
2026-04-20 15:56 40.78088 68.63759 7845 ft 274 kts 46°
2026-04-20 15:57 40.79346 68.65653 7722 ft 281 kts 47°
2026-04-20 15:57 40.80691 68.67487 7598 ft 281 kts 40°
2026-04-20 15:57 40.82229 68.69065 7474 ft 279 kts 31°
2026-04-20 15:57 40.83873 68.70364 7352 ft 277 kts 28°
2026-04-20 15:58 40.85541 68.71583 7229 ft 276 kts 27°
2026-04-20 15:58 40.87216 68.72796 7105 ft 276 kts 27°
2026-04-20 15:58 40.88874 68.74000 6982 ft 275 kts 27°
2026-04-20 15:58 40.90561 68.75234 6856 ft 274 kts 27°
2026-04-20 15:59 40.92221 68.76452 6731 ft 273 kts 27°
2026-04-20 15:59 40.93861 68.77659 6608 ft 273 kts 27°
2026-04-20 15:59 40.95509 68.78873 6483 ft 272 kts 28°
2026-04-20 15:59 40.97164 68.80095 6358 ft 271 kts 28°
2026-04-20 16:00 40.98806 68.81309 6234 ft 270 kts 28°
2026-04-20 16:00 41.00417 68.82501 6042 ft 263 kts 28°
2026-04-20 16:00 41.01989 68.83664 5813 ft 256 kts 28°
2026-04-20 16:00 41.03537 68.84811 5601 ft 249 kts 28°
2026-04-20 16:01 41.05028 68.85915 5388 ft 243 kts 28°
2026-04-20 16:01 41.06481 68.86991 5177 ft 237 kts 32°
2026-04-20 16:01 41.07902 68.88000 5036 ft 229 kts 26°
2026-04-20 16:01 41.09426 68.88376 4890 ft 225 kts 354°
2026-04-20 16:02 41.10928 68.87891 4777 ft 223 kts 343°
2026-04-20 16:02 41.12380 68.87193 4655 ft 222 kts 341°
2026-04-20 16:02 41.13791 68.86479 4552 ft 211 kts 340°
2026-04-20 16:02 41.15132 68.85809 4416 ft 203 kts 340°
2026-04-20 16:03 41.16430 68.85166 4278 ft 195 kts 340°
2026-04-20 16:03 41.17667 68.84557 4146 ft 190 kts 340°
2026-04-20 16:03 41.18918 68.83945 4022 ft 190 kts 340°
2026-04-20 16:03 41.20155 68.83373 3894 ft 190 kts 349°
2026-04-20 16:04 41.21420 68.83588 3710 ft 184 kts 34°
2026-04-20 16:04 41.22234 68.84837 3601 ft 184 kts 67°
2026-04-20 16:04 41.22461 68.86486 3495 ft 186 kts 88°
2026-04-20 16:04 41.22449 68.88196 3374 ft 185 kts 90°
2026-04-20 16:05 41.22427 68.89896 3251 ft 185 kts 89°
2026-04-20 16:05 41.22424 68.91615 3125 ft 184 kts 88°
2026-04-20 16:05 41.22436 68.93306 3009 ft 183 kts 88°
2026-04-20 16:05 41.22457 68.94988 3013 ft 184 kts 88°
2026-04-20 16:06 41.22483 68.96705 3006 ft 184 kts 88°
2026-04-20 16:06 41.22514 68.98404 3002 ft 184 kts 85°
2026-04-20 16:06 41.22626 69.00063 3001 ft 183 kts 82°
2026-04-20 16:06 41.22799 69.01749 3001 ft 183 kts 81°
2026-04-20 16:07 41.22980 69.03404 3001 ft 184 kts 81°
2026-04-20 16:07 41.23159 69.05042 3001 ft 184 kts 81°
2026-04-20 16:07 41.23337 69.06697 3001 ft 184 kts 81°
2026-04-20 16:07 41.23501 69.08234 3000 ft 184 kts 81°
2026-04-20 16:08 41.23819 69.11207 3020 ft 183 kts 81°
2026-04-20 16:08 41.23994 69.12842 3087 ft 180 kts 81°
2026-04-20 16:08 41.24158 69.14376 3027 ft 159 kts 81°
2026-04-20 16:09 41.24306 69.15750 2940 ft 143 kts 80°
2026-04-20 16:09 41.24448 69.17050 2748 ft 141 kts 81°
2026-04-20 16:09 41.24587 69.18328 2571 ft 141 kts 81°
2026-04-20 16:09 41.24726 69.19606 2390 ft 140 kts 81°
2026-04-20 16:10 41.24867 69.20890 2212 ft 140 kts 81°
2026-04-20 16:10 41.25007 69.22149 2061 ft 139 kts 81°
2026-04-20 16:10 41.25151 69.23425 1898 ft 139 kts 81°
2026-04-20 16:10 41.25287 69.24709 1706 ft 139 kts 81°
2026-04-20 16:11 41.25421 69.25962 1507 ft 138 kts 81°
2026-04-20 16:11 41.25553 69.27161 1425 ft 108 kts 81°
2026-04-20 16:11 41.25621 69.27803 1425 ft 47 kts 81°
2026-04-20 16:11 41.25666 69.28189 1425 ft 40 kts 80°
2026-04-20 16:12 41.25697 69.28500 1425 ft 26 kts 81°
2026-04-20 16:12 41.25724 69.28732 1425 ft 24 kts 80°
2026-04-20 16:12 41.25765 69.28879 1425 ft 16 kts 25°
2026-04-20 16:12 41.25857 69.28932 1425 ft 16 kts 21°
2026-04-20 16:13 41.25941 69.28938 1425 ft 16 kts 345°
2026-04-20 16:13 41.26019 69.28882 1425 ft 15 kts 320°
2026-04-20 16:13 41.26096 69.28787 1425 ft 15 kts 317°
2026-04-20 16:13 41.26165 69.28700 1425 ft 15 kts 307°
2026-04-20 16:14 41.26186 69.28583 1425 ft 15 kts 273°
2026-04-20 16:14 41.26192 69.28457 1425 ft 15 kts 273°
2026-04-20 16:14 41.26186 69.28336 1425 ft 15 kts 262°
2026-04-20 16:14 41.26169 69.28181 1425 ft 15 kts 262°
2026-04-20 16:15 41.26151 69.28014 1425 ft 15 kts 261°
2026-04-20 16:15 41.26132 69.27844 1425 ft 15 kts 262°
2026-04-20 16:15 41.26113 69.27667 1425 ft 15 kts 261°
2026-04-20 16:15 41.26096 69.27523 1425 ft 15 kts 261°
2026-04-20 16:16 41.26079 69.27382 1425 ft 15 kts 260°
2026-04-20 16:16 41.26064 69.27264 1425 ft 15 kts 246°
2026-04-20 16:16 41.26026 69.27171 1425 ft 14 kts 243°
2026-04-20 16:16 41.26001 69.27096 1425 ft 10 kts 246°
2026-04-20 16:17 41.25977 69.27026 1425 ft 10 kts 244°
2026-04-20 16:17 41.25987 69.26964 1425 ft 8 kts 331°
2026-04-20 16:17 41.26017 69.26945 1425 ft 3 kts 336°
2026-04-20 16:17 41.26019 69.26945 1425 ft 0 kts 336°